TITAN 3C TRANSTAGE DEB, 20672

Orbit data source: Space-Track

TITAN 3C TRANSTAGE DEB, 20672 is space debris in HEO originally from a launch on Tue, 21 Dec 1965 UTC launched from the Air Force Eastern Test Range (AFETR). Debris objects in space refer to the collection of defunct objects orbiting the Earth. Examples of debris include non-operational satellites, rocket bodies, and fragments generated from explosions, collisions, or faulty payload assembly.

Loading next visibility...
Identifier
20672, 1965-108AD
Orbit
HEO
Country
Flag of USUS
Related business
Manufacturer
Unknown
Mission
Spacecraft
Bus & Motor
Unknown
Mass
Unknown
Launch date (UTC)
1965-12-21 (61 years ago)
Launch vehicle
Unknown
Launch site
Air Force Eastern Test Range (AFETR)
Object type
Payload
Rocket body
Debris
Shape & HBR
Unknown shape, 0.1 m
Radar Cross Section
Medium (>0.1 m² and <1 m²)

Expand to show TLE details & history
Last TLE update: 4 months ago

TLE from 4 months ago
0 TITAN 3C TRANSTAGE DEB
1 20672U 65108AD  26038.06621243  .00000070  00000-0  11042-2 0  9997
2 20672  26.8274 265.2867 6814740 219.7757 351.4547  2.70049655 44007
Epoch: 2026-02-07T01:35Z
TLE epoch observation values (Epoch: 2026-02-07T01:35:20.753Z)
Latitude
6.5916°
Longitude
-88.89068°
Altitude
1,964.911 km
Speed
8.789 km/s
True Right ascension
04h 48m 33s
True Declination
6° 33' 29"
Sunlit
Object was in daylight at epoch
Visualization orbit readout
Latitude
Unknown
Longitude
Unknown
Altitude
Unknown
Speed
Unknown
Apparent Right ascension
Unknown
Apparent Declination
Unknown
Sunlit
N/A
Visualization observer readout
Local Sidereal Time
13:29:55
Azimuth
Unknown
Elevation
Unknown
Doppler factor
Unknown
Orbital elements
Apogee altitude
30,254.48 km
Perigee altitude
561.275 km
Semi-major axis
21,786.014 km
Eccentricity
0.68147
Inclination
26.8274°
RAAN
265.2867°
Arg. of periapsis
219.7757°
True anomaly
305.78147°
Mean anomaly
351.4547°
Eccentric anomaly
334.87803°
Mean motion
0.67496 °/min
Orbital period
533.37 mins
BSTAR
0.0011042
Loading maneuver chart data...
Computing Atmospheric mass density...

Documentation

Showing up to 5 results
|